This demonstration page uses our WeatherBlox Daily Observations layout. Learn more.

Left ArrowRight Arrow

Hourly Observations for January 13, 2017

Temp ( °F °C ) Dew Point ( °F °C ) Humidity (%) Winds ( mph kmh ) Pressure ( in mb ) Visibility ( mi km ) Precip ( " mm )
12:53 am 00:53 Clear 46 7.8 28 -2.2 50 50 N 12 19 30.09 1019 10 16 0.00 0.00
1:53 am 01:53 Clear 46 7.8 28 -2.2 50 50 NNW 7 11 30.11 1020 10 16 0.00 0.00
2:53 am 02:53 Clear 46 7.8 27 -2.8 47 47 N 12 19 30.13 1020 10 16 0.00 0.00
3:53 am 03:53 Clear 45 7.2 26 -3.3 48 48 NNW 9 15 30.14 1021 10 16 0.00 0.00
4:53 am 04:53 Clear 46 7.8 26 -3.3 46 46 N 16 26 30.14 1021 10 16 0.00 0.00
5:53 am 05:53 Clear 46 7.8 25 -3.9 44 44 N 17 28 30.14 1021 10 16 0.00 0.00
6:53 am 06:53 Clear 45 7.2 25 -3.9 46 46 N 15 24 30.16 1021 10 16 0.00 0.00
7:53 am 07:53 Sunny 44 6.7 26 -3.3 49 49 N 14 22 30.18 1022 10 16 0.00 0.00
8:53 am 08:53 Sunny 47 8.3 25 -3.9 42 42 N 12 19 30.21 1023 10 16 0.00 0.00
9:53 am 09:53 Sunny 50 10 25 -3.9 38 38 N 16 26 30.22 1023 10 16 0.00 0.00
10:53 am 10:53 Sunny 52 11.1 24 -4.4 34 34 N 21 33 30.23 1024 10 16 0.00 0.00
11:53 am 11:53 Sunny 54 12.2 26 -3.3 34 34 NNE 16 26 30.21 1023 10 16 0.00 0.00
12:53 pm 12:53 Sunny 55 12.8 27 -2.8 34 34 NNE 13 20 30.19 1022 10 16 0.00 0.00
1:53 pm 13:53 Sunny 57 13.9 28 -2.2 33 33 NNE 14 22 30.17 1022 10 16 0.00 0.00
2:53 pm 14:53 Sunny 58 14.4 28 -2.2 32 32 N 16 26 30.17 1022 10 16 0.00 0.00
3:53 pm 15:53 Sunny 57 13.9 29 -1.7 34 34 N 14 22 30.19 1022 10 16 0.00 0.00
4:53 pm 16:53 Sunny 54 12.2 29 -1.7 38 38 N 13 20 30.18 1022 10 16 0.00 0.00
5:53 pm 17:53 Clear 53 11.7 29 -1.7 40 40 N 9 15 30.20 1023 10 16 0.00 0.00
6:53 pm 18:53 Clear 51 10.6 29 -1.7 43 43 N 13 20 30.20 1023 10 16 0.00 0.00
7:53 pm 19:53 Clear 52 11.1 28 -2.2 40 40 NNW 7 11 30.20 1023 10 16 0.00 0.00
8:53 pm 20:53 Clear 49 9.4 28 -2.2 44 44 NNW 7 11 30.23 1024 10 16 0.00 0.00
9:53 pm 21:53 Clear 51 10.6 27 -2.8 39 39 N 7 11 30.22 1023 10 16 0.00 0.00
10:53 pm 22:53 Clear 49 9.4 27 -2.8 43 43 NNW 8 13 30.22 1023 10 16 0.00 0.00
11:53 pm 23:53 Clear 50 10 27 -2.8 41 41 NNW 8 13 30.21 1023 10 16 0.00 0.00

Powered by AerisWeather